Theta_e
356 348 344 347 340 336 330 325 324 324 324 324 325 327 334 334 327 329 330 331 331 329 327 327 328 332 333 342 345 345 344 343 341 340 338 338 338 340 333 329 349 349 339
355 350 344 344 339 334 326 327 326 325 325 326 327 330 333 328 327 329 328 327 327 328 329 330 331 335 335 342 344 345 345 345 343 342 343 349 348 340 339 330 345 339 332
353 349 345 341 335 331 327 329 328 327 327 327 326 326 325 325 328 328 327 327 331 328 329 333 338 339 339 342 344 345 346 346 345 344 349 350 350 347 339 339 341 335 331
352 352 346 341 341 336 329 328 332 328 329 327 325 325 324 326 328 328 327 330 329 329 333 336 341 342 343 344 344 344 344 345 346 348 350 352 352 350 343 336 339 342 334
352 354 346 344 344 344 343 337 337 333 331 328 326 324 326 328 328 327 328 328 330 334 338 340 342 344 345 345 346 346 347 347 346 352 355 352 354 351 347 344 339 339 340
355 356 345 346 345 343 343 343 340 339 337 331 328 325 327 329 327 326 328 330 335 337 343 344 345 345 346 346 347 348 347 347 348 355 350 352 351 349 347 347 345 342 339
355 355 346 346 345 344 343 343 342 339 336 330 326 326 328 328 326 327 332 335 338 344 344 344 344 344 344 347 348 347 348 348 352 346 349 352 348 347 347 345 344 345 343
356 352 349 348 346 344 343 347 345 336 330 326 327 329 328 328 329 334 336 340 344 344 345 345 347 346 347 347 347 347 349 348 351 351 353 348 346 346 343 344 343 342 343
354 351 346 348 346 347 343 338 332 328 326 328 329 328 331 333 336 338 343 343 345 345 347 347 347 346 347 347 347 346 347 343 347 351 352 350 348 346 344 347 347 347 346
353 355 351 347 348 343 336 331 330 329 329 329 330 333 337 338 343 345 348 345 345 345 347 347 345 345 351 351 351 347 348 346 349 355 350 344 345 344 345 346 346 346 346
352 354 353 345 344 339 333 333 332 331 331 333 336 338 348 351 350 352 346 345 345 345 347 346 347 347 348 351 351 352 352 353 352 353 349 344 343 343 344 344 345 345 344
355 355 352 339 334 340 340 334 334 347 350 352 352 350 350 350 349 350 347 347 349 350 351 351 348 348 350 352 354 352 353 348 353 351 347 345 345 345 345 343 343 343 342
355 353 350 340 336 339 341 333 332 340 349 350 349 352 350 351 350 350 352 352 352 352 351 348 347 348 352 354 354 351 352 353 353 351 346 345 345 344 345 343 342 341 341
354 354 351 348 344 349 334 340 341 337 338 351 348 351 351 352 351 349 349 351 351 348 349 348 347 349 353 352 353 352 353 354 353 350 343 344 344 344 343 342 340 339 341
354 353 353 349 351 351 337 341 339 339 339 342 348 350 351 349 348 349 349 349 348 348 350 347 348 352 355 354 353 353 352 353 351 351 343 344 343 344 344 342 338 338 339
354 354 354 354 352 353 344 342 342 340 342 346 349 352 348 350 348 349 349 350 348 348 350 347 350 353 351 353 352 353 353 353 351 349 349 341 343 343 342 342 342 343 343
354 354 354 354 352 352 353 347 344 343 344 343 344 349 349 348 348 351 349 347 348 349 348 348 351 352 354 352 353 354 353 353 350 350 349 348 343 341 342 343 343 343 343
353 353 354 355 355 355 353 353 346 344 344 345 348 347 350 348 348 344 348 348 346 350 347 347 352 354 352 351 353 353 352 351 349 348 348 347 347 346 341 341 341 342 341
353 353 353 354 353 354 355 353 350 350 340 348 347 348 350 351 350 349 350 351 348 348 349 347 352 352 352 352 353 351 353 351 349 349 348 347 348 347 345 342 338 335 338
353 354 354 354 352 354 352 352 353 352 351 349 349 349 347 349 350 347 352 351 351 348 350 349 352 351 352 354 353 353 351 350 350 347 347 346 344 343 342 340 341 336 331
351 353 354 353 354 355 352 352 353 352 351 350 349 348 347 348 350 351 353 353 350 347 348 351 349 349 354 353 353 353 349 350 349 347 346 344 341 339 337 335 334 334 333
352 352 354 354 353 352 354 352 353 351 351 350 349 348 343 346 348 349 349 350 351 350 352 352 348 352 349 354 355 353 351 348 348 346 345 340 340 338 335 332 332 333 333
354 354 355 355 355 354 354 354 354 351 351 350 349 348 349 343 342 345 350 346 350 347 349 348 349 351 350 352 351 353 350 349 349 346 343 340 340 337 334 332 331 326 330
355 356 356 357 356 356 353 352 352 353 352 351 351 349 349 347 345 343 347 346 346 345 349 345 345 340 350 352 354 350 350 349 350 348 344 342 340 338 335 332 329 327 325
353 356 357 357 358 357 355 354 353 352 351 350 348 348 348 347 343 341 340 340 336 344 347 345 336 342 351 351 352 350 350 351 349 348 345 341 340 338 336 332 328 327 327
353 356 357 358 357 358 355 351 354 353 352 350 349 349 349 349 348 340 340 342 336 346 347 348 345 338 352 349 351 347 348 348 347 350 347 342 341 338 336 334 329 328 325
Wind_Speed
14 19 19 16 17 18 18 17 17 17 15 12 11 12 12 11 10 10 9 8 7 8 9 10 10 10 9 9 10 10 9 9 9 8 7 9 9 8 8 8 6 6 4
17 19 20 16 17 18 17 17 16 15 13 10 10 10 9 8 8 8 8 8 8 9 9 10 9 9 9 8 10 11 10 9 9 8 8 6 6 10 6 6 5 5 3
19 21 21 17 17 17 15 15 14 13 11 9 9 9 8 6 7 7 7 8 8 8 9 9 10 10 10 9 9 9 10 9 8 7 8 2 3 3 5 6 3 2 3
19 19 20 18 16 15 14 12 10 10 10 9 9 8 6 5 5 5 6 6 7 8 9 10 11 11 10 9 7 7 8 8 5 2 7 7 6 5 5 3 1 0 6
21 19 20 17 15 13 13 12 10 9 8 7 7 6 4 4 4 5 6 6 7 9 11 12 11 10 9 9 9 9 10 10 11 12 12 6 2 6 9 8 11 8 6
18 17 20 17 14 12 11 11 9 8 7 6 4 3 2 3 5 4 5 7 9 9 10 10 10 10 9 10 12 13 13 11 13 21 11 2 5 9 15 10 9 9 12
19 17 20 16 13 12 10 9 8 7 5 4 3 1 3 3 4 4 7 10 10 9 10 11 11 10 10 11 13 13 12 13 10 17 8 13 13 10 10 9 7 8 9
18 19 18 16 13 11 10 8 8 7 6 3 1 1 3 3 4 6 9 10 9 9 10 12 13 12 10 11 13 13 11 11 9 11 13 12 12 9 11 8 11 4 2
19 19 18 16 14 12 10 8 7 6 4 2 1 2 6 7 9 9 9 8 8 9 10 12 13 13 13 14 16 14 11 13 14 15 17 13 9 9 10 9 6 6 4
16 16 17 16 15 12 10 9 7 5 3 0 2 4 10 11 9 10 7 7 7 9 11 13 15 15 13 13 16 17 12 12 8 8 9 15 12 11 11 9 9 7 6
19 17 18 19 14 12 11 9 7 6 3 3 4 7 8 6 4 3 4 6 8 10 13 15 17 18 19 12 16 17 13 11 17 17 13 18 14 13 13 11 8 7 7
20 20 18 19 17 13 12 11 9 5 4 1 2 2 2 3 2 2 3 8 8 9 13 14 17 18 17 13 13 14 14 14 21 17 18 17 15 13 13 11 10 9 9
20 19 19 21 20 18 15 11 9 11 7 4 4 4 3 2 2 3 2 6 11 13 13 14 14 12 11 5 13 15 11 12 20 17 17 15 14 13 13 13 13 12 10
22 21 20 20 20 16 18 12 16 13 7 6 5 4 3 4 2 1 8 4 11 9 9 10 11 11 12 20 16 12 14 14 16 16 18 16 15 15 16 16 16 17 16
24 21 24 21 19 18 20 17 18 13 11 8 2 6 6 4 3 4 2 5 5 8 10 10 10 9 11 13 12 9 15 15 12 16 22 18 20 19 20 20 19 17 18
22 22 22 21 22 18 19 19 18 15 10 8 9 3 8 1 4 1 2 4 5 7 7 9 9 10 11 8 10 11 10 12 16 15 17 18 18 19 19 19 18 18 16
22 22 25 21 23 19 16 17 17 19 14 9 14 12 4 7 6 1 3 4 3 5 9 9 9 8 8 7 8 3 12 13 14 14 15 18 17 17 18 18 17 16 16
21 23 23 20 19 19 17 15 16 14 14 11 10 9 6 7 7 4 4 1 3 4 6 8 9 5 6 8 6 9 10 13 14 14 13 12 15 14 19 17 16 16 17
22 24 22 20 21 19 18 16 13 13 16 10 9 10 9 8 7 7 3 1 1 3 5 7 8 4 8 7 7 8 10 11 13 12 15 15 15 15 15 18 15 17 13
21 19 22 22 19 19 18 20 18 15 13 14 11 9 13 7 7 10 6 4 0 3 4 5 7 2 5 10 6 7 9 11 11 11 15 14 14 13 13 14 14 18 13
22 22 21 23 22 20 19 18 17 17 15 15 14 14 13 9 8 9 8 1 2 3 5 5 4 6 3 2 5 8 8 13 11 12 11 11 13 14 13 14 12 11 17
22 22 22 22 24 26 20 18 19 18 15 16 14 17 19 15 12 9 11 3 7 4 5 6 4 6 1 2 4 4 5 9 11 11 8 11 13 11 14 16 15 15 14
25 24 22 23 22 24 20 19 17 17 18 17 19 20 16 19 17 15 12 14 6 5 4 8 5 6 5 2 3 5 2 4 12 8 8 8 11 11 12 15 15 15 14
28 24 23 23 23 21 22 20 21 19 19 19 18 18 16 17 17 17 16 15 12 9 10 6 6 5 10 3 3 1 2 5 3 7 6 8 9 9 10 11 13 15 17
27 26 26 24 23 21 22 22 20 21 17 18 19 17 18 17 17 18 20 18 15 13 10 11 10 6 6 4 0 1 1 4 6 9 10 9 7 7 8 9 12 13 14
29 27 25 27 26 24 23 23 23 19 18 17 18 20 17 17 15 19 20 19 16 11 12 12 9 8 8 4 3 2 3 3 3 11 12 12 9 7 7 8 9 11 11
Wind_Direction
131 138 142 137 134 134 130 125 123 130 128 117 114 119 112 96 82 71 70 66 51 34 27 31 34 32 46 60 55 52 51 49 51 53 62 59 46 38 53 95 56 121 358
140 143 144 142 136 137 135 127 121 124 125 116 115 116 113 96 75 61 46 35 33 32 33 23 32 46 57 62 53 48 38 37 41 46 45 47 38 19 35 80 97 11 341
140 145 145 143 136 140 138 132 125 124 117 105 116 118 107 97 68 48 32 23 30 36 25 45 58 64 66 60 48 38 26 19 15 35 51 350 233 42 37 50 19 16 12
140 137 145 143 138 139 144 142 132 134 123 107 109 115 106 80 49 34 22 36 31 25 50 58 60 62 61 54 39 22 12 5 356 136 124 66 354 22 16 63 20 263 215
143 148 150 145 145 143 145 146 137 135 128 118 103 110 88 41 12 18 40 40 40 61 63 60 57 51 44 35 22 11 360 340 309 275 239 124 150 352 344 306 270 241 230
142 147 149 148 147 146 146 146 147 143 139 134 109 108 57 4 357 20 53 61 75 73 69 60 45 33 33 23 8 4 357 332 333 319 359 332 57 335 358 324 299 264 249
147 150 152 150 149 149 147 147 151 150 145 142 129 80 351 352 12 47 84 88 82 71 51 34 22 18 15 12 6 3 1 337 354 359 357 34 16 355 3 359 338 261 295
154 155 155 153 153 153 151 151 158 155 150 150 199 27 17 22 65 90 92 88 79 58 36 35 32 30 27 14 11 9 16 358 6 346 52 36 22 34 26 37 38 82 51
158 152 156 154 158 159 162 167 163 155 158 157 316 15 71 79 91 89 84 72 58 41 32 34 31 29 32 16 8 357 352 8 18 5 26 48 33 14 22 35 60 54 57
155 159 151 159 160 165 162 167 165 162 159 347 43 70 88 85 84 60 48 43 34 37 38 29 23 23 8 359 6 355 352 29 72 60 43 43 47 51 49 46 58 57 52
164 160 171 163 162 165 168 173 176 173 121 39 50 97 66 77 56 20 5 23 31 38 30 27 26 20 7 355 6 350 17 33 31 67 54 47 59 48 50 55 55 58 56
167 170 168 169 169 178 176 179 180 166 158 173 219 162 80 149 76 64 46 16 34 31 25 9 13 7 10 352 15 354 9 32 54 48 47 46 49 52 55 65 62 58 51
175 181 175 174 183 186 179 189 185 153 149 201 232 159 234 166 307 12 306 9 10 18 21 4 6 356 341 355 47 31 32 45 50 47 48 42 51 57 63 68 64 61 64
179 185 182 181 188 187 195 204 215 213 198 159 238 207 210 239 318 9 24 357 15 29 7 3 356 354 357 34 55 51 40 71 58 53 49 51 58 69 72 72 71 72 74
183 187 189 185 194 195 201 206 212 209 214 192 211 224 228 241 301 288 2 0 7 6 7 0 2 351 33 37 62 52 72 40 57 69 56 65 72 76 76 75 75 75 76
187 189 188 192 206 194 204 212 214 210 204 224 207 238 232 203 221 286 301 322 350 350 9 3 11 2 43 57 61 63 72 68 61 52 62 59 73 75 75 74 72 69 69
193 191 202 188 206 196 201 216 211 213 224 231 227 210 211 219 255 142 288 311 328 355 14 13 13 40 42 56 76 55 82 83 75 56 59 72 59 67 68 67 66 64 63
190 189 202 194 200 199 201 212 213 217 197 219 238 225 220 239 212 244 276 296 334 5 5 18 11 26 70 69 74 79 78 88 89 88 83 77 78 61 62 55 60 60 56
192 199 205 209 201 200 203 204 208 234 210 217 224 218 224 224 236 233 248 243 12 354 351 17 11 13 86 101 80 97 104 106 101 87 87 83 62 55 35 32 33 32 52
195 198 202 209 211 199 202 205 206 215 218 217 220 216 226 226 221 236 274 248 134 295 356 2 18 37 67 94 99 104 106 102 92 89 89 83 69 68 62 52 16 29 48
196 199 199 207 203 202 204 205 210 215 218 218 212 220 221 226 233 236 272 164 259 281 282 340 12 357 67 164 116 100 110 105 106 97 102 82 77 73 64 51 77 59 45
194 199 200 201 214 212 207 212 209 213 218 221 223 242 239 225 234 248 239 242 268 281 298 302 347 337 240 219 197 157 134 108 102 113 97 91 81 73 61 65 70 78 56
194 197 202 200 205 213 206 215 219 219 222 224 222 230 238 235 238 234 222 228 255 265 300 292 300 332 324 260 228 275 218 164 117 100 89 87 84 67 59 59 63 78 102
195 195 200 203 202 209 202 211 217 219 227 229 230 230 233 231 229 233 234 241 251 249 251 290 311 310 314 282 321 264 251 159 174 133 119 104 88 84 76 68 74 74 70
200 201 198 200 204 205 208 205 223 219 229 235 237 233 222 248 239 230 231 238 249 269 258 267 259 290 296 279 280 178 315 183 146 153 142 136 110 92 82 79 85 85 82
204 202 199 201 203 206 211 208 220 224 221 229 227 224 218 230 254 231 234 239 253 256 257 250 272 291 285 253 175 241 241 271 170 161 145 149 138 125 105 94 94 99 100